TIME,DELAY(SENSOR),PRES,OXYGEN,RAWTEMP,T(OPTODE),TCPHASE,FLUOR,BETA(BETA700),BETA(BETA412),BETA(BETA440),CDOM,C(CSC),ED(ED412.40),ED(ED444.00),ED(ED489.70),ED(ED554.30),LU(LU411.80),LU(LU443.40),LU(LU489.60),LU(LU554.10),COMP,TILTX,TILTY,CHECK
1366084452,5807,843.2299804687500000,44.8457298278808600,657.3822021484375000,4.7141170501708980,54.2468605041503900,53,99,86,80,79,14851,2147754550,2147427117,2148009280,2147870720,2147635218,2147062308,2148262016,2147200009,474,4,14,64116
1366088048,5811,896.9600219726562000,47.0759811401367200,662.1010742187500000,4.5587749481201170,53.9845390319824200,53,103,87,78,80,14853,2147755584,2147421833,2148008228,2147872841,2147638829,2147055478,2148264768,2147195401,60,4,13,4684
1366091648,5809,894.3400268554688000,46.0664710998535160,663.3748779296875000,4.5167999267578125,54.1430816650390600,53,102,84,79,80,14851,2147758025,2147420754,2148009371,2147874505,2147639844,2147056484,2148262875,2147199131,226,4,13,1138
1366095248,5810,919.4799804687500000,46.6443405151367200,668.7175903320312000,4.3405508995056150,54.1240882873535160,52,98,88,78,81,14851,2147756132,2147422930,2148013092,2147872877,2147641581,2147059346,2148256365,2147196059,837,4,13,65310
1366098848,5807,934.9600219726562000,46.5187187194824200,668.2271118164062000,4.3567447662353520,54.1361808776855500,52,100,87,78,80,14849,2147755638,2147421677,2148010185,2147873426,2147641984,2147059931,2148257636,2147198116,372,4,13,41442
1366102448,5808,935.8699951171875000,46.1862792968750000,668.0286865234375000,4.3632950782775880,54.1797904968261700,53,97,87,78,80,14846,2147755419,2147423570,2148010249,2147871908,2147643072,2147055259,2148261430,2147190473,3590,4,13,2766
1366106048,5809,957.9600219726562000,48.4075012207031250,671.4044799804688000,4.2517890930175780,53.9088592529296900,52,97,90,80,81,14849,2147755456,2147422948,2148010249,2147870454,2147642678,2147058761,2148264512,2147191753,324,4,13,9804
1366109648,5807,967.0300292968750000,46.9683914184570300,669.6406860351562000,4.3100638389587400,54.0937690734863300,53,96,88,79,79,14849,2147757101,2147423469,2148010203,2147870573,2147641499,2147055085,2148266825,2147193554,698,4,13,48658
1366113248,5808,980.2999877929688000,46.4787292480468750,668.8712768554688000,4.3354759216308590,54.1525917053222660,52,98,84,78,80,14847,2147756516,2147425408,2148010889,2147873700,2147640978,2147059712,2148266505,2147196050,100,4,13,45322
1366116848,5807,976.0999755859375000,45.9541587829589840,667.8084716796875000,4.3705649375915530,54.2141189575195300,52,97,89,79,80,14843,2147758107,2147424347,2148014125,2147872576,2147641810,2147063734,2148264475,2147192932,697,4,14,2884
1366120448,5809,973.8099975585938000,46.0128211975097660,668.8784179687500000,4.3352432250976560,54.2147483825683600,52,97,85,78,80,14846,2147757604,2147425728,2148011684,2147872667,2147637202,2147059693,2148260105,2147196918,3417,4,13,28590
1366124048,5806,972.3099975585938000,46.0132598876953100,669.6693115234375000,4.3091201782226560,54.2239799499511700,52,99,86,78,80,14841,2147755282,2147422738,2148010294,2147873819,2147637037,2147057901,2148262985,2147195154,3346,4,13,28145
1366127648,5805,970.5599975585938000,47.3936386108398440,669.9752197265625000,4.2990169525146480,54.0337409973144500,53,98,87,80,81,14846,2147758070,2147422354,2148009216,2147874898,2147636224,2147053522,2148265581,2147193417,195,4,13,46243
1366131248,5807,962.7700195312500000,47.8321304321289060,671.0811767578125000,4.2624759674072270,53.9856185913085940,52,99,83,79,81,14844,2147756763,2147424530,2148010258,2147874084,2147637568,2147052251,2148263835,2147190747,3176,4,13,19276
1366134848,5812,966.9199829101562000,47.7666587829589840,671.7808837890625000,4.2393488883972170,54.0034294128418000,52,158,85,77,81,14847,2147759076,2147422208,2148011145,2147876845,2147640420,2147053613,2148259593,2147192987,3206,4,13,9100
1366138448,5806,970.0999755859375000,48.0271911621093750,671.4083862304688000,4.2516632080078125,53.9646110534668000,52,99,81,79,80,14845,2147756342,2147424557,2148012132,2147872219,2147639725,2147057938,2148264713,2147196214,3380,4,13,48004
1366142048,5811,959.4899902343750000,47.7911796569824200,672.7382202148438000,4.2077050209045410,54.0157318115234400,53,98,87,79,82,14839,2147758811,2147423314,2148009078,2147873417,2147639853,2147054902,2148268105,2147195318,84,4,13,28740
1366145648,5804,964.2899780273438000,47.6226196289062500,673.0963134765625000,4.1958599090576170,54.0423698425293000,52,98,88,78,81,14847,2147755776,2147424557,2148011666,2147872338,2147639241,2147060224,2148263158,2147197074,557,4,13,20077
1366149248,5809,971.8800048828125000,47.6144905090332000,671.8217773437500000,4.2379951477050780,54.0247001647949200,52,100,85,79,80,14845,2147760292,2147425325,2148013156,2147873837,2147642678,2147055963,2148260352,2147195309,57,4,13,2097
1366152848,5810,985.6900024414062000,47.0088806152343750,669.9047851562500000,4.3013401031494140,54.0860710144043000,53,101,89,78,81,14843,2147757065,2147423990,2148014253,2147870354,2147643017,2147066066,2148263259,2147194633,3356,4,13,35087
1366156448,5809,984.8300170898438000,46.3216896057128900,669.5499877929688000,4.3130631446838380,54.1792793273925800,53,101,85,77,80,14842,2147757293,2147423899,2148009764,2147871268,2147641362,2147059401,2148262701,2147197485,208,4,13,30284
1366160048,5811,983.5499877929688000,45.4797592163085940,669.4498901367188000,4.3163681030273440,54.2997894287109400,53,98,82,79,81,14842,2147755803,2147425764,2148012141,2147873261,2147637193,2147057682,2148259318,2147201417,45,4,13,33466
1366163648,5806,974.9699707031250000,45.7595291137695300,669.6356811523438000,4.3102278709411620,54.2616386413574200,52,101,83,78,81,14843,2147755053,2147427931,2148008649,2147875264,2147640246,2147054646,2148258925,2147192923,3263,4,13,61305
1366167248,5806,972.2000122070312000,45.8649101257324200,670.0859985351562000,4.2953572273254395,54.2563285827636700,52,98,88,79,80,14842,2147757184,2147425152,2148010688,2147876882,2147639753,2147058953,2148262747,2147195876,264,4,13,28106
1366170848,5807,977.2700195312500000,46.2281990051269500,670.2329711914062000,4.2905011177062990,54.1995811462402340,52,101,84,79,81,14843,2147754770,2147424512,2148015250,2147873270,2147640896,2147056749,2148261933,2147194212,172,4,13,16696
1366174448,5808,974.0999755859375000,47.1642303466796900,671.8071899414062000,4.2384819984436035,54.0898895263671900,52,99,87,79,81,14840,2147758198,2147424374,2148010377,2147874276,2147641298,2147052992,2148264804,2147195538,3566,4,13,15627
1366178048,5811,973.0100097656250000,47.1933898925781250,672.2141723632812000,4.2250251770019530,54.0908088684082000,52,97,87,78,80,14841,2147759497,2147422756,2148013604,2147873499,2147639003,2147057133,2148263588,2147200237,414,4,13,16151
1366181648,5811,972.8599853515625000,47.2001991271972660,672.1182250976562000,4.2281990051269530,54.0840797424316400,52,99,85,80,80,14839,2147757805,2147423414,2148012388,2147873097,2147643465,2147054080,2148260854,2147200045,85,4,13,50999
1366185248,5810,973.1900024414062000,47.4889106750488300,672.0848999023438000,4.2293000221252440,54.0466194152832000,52,98,86,79,81,14818,2147756882,2147423652,2148011419,2147873197,2147640036,2147056393,2148257828,2147196032,3523,4,13,33321
1366188848,5813,973.7600097656250000,47.4829101562500000,672.5778808593750000,4.2130007743835450,54.0506286621093750,52,99,85,79,82,14819,2147758546,2147423689,2148012178,2147874898,2147641700,2147058669,2148257801,2147194459,101,4,13,53182
1366192448,5808,968.5100097656250000,47.4111709594726560,673.1345825195312000,4.1945948600769040,54.0728416442871100,53,101,87,79,81,14814,2147756169,2147422381,2148014281,2147874020,2147639917,2147055195,2148258605,2147194642,3373,4,13,47288
1366196048,5808,984.7700195312500000,47.4988784790039060,671.8640136718750000,4.2366027832031250,54.0428810119628900,53,99,86,78,81,14817,2147756781,2147422747,2148012800,2147878061,2147642898,2147057334,2148257856,2147193243,231,4,13,56000
1366199648,5810,985.0800170898438000,46.5826683044433600,670.2515258789062000,4.2898879051208500,54.1558189392089840,52,98,88,78,80,14816,2147757659,2147423058,2148013357,2147875803,2147638875,2147063213,2148256813,2147196306,804,4,13,43545
1366203248,5809,989.6300048828125000,46.6723709106445300,669.6091918945312000,4.3111062049865720,54.1357383728027340,53,98,88,79,81,14818,2147760859,2147427675,2148012562,2147873398,2147636946,2147056073,2148265014,2147195474,3480,4,13,50231
1366206848,5809,984.2100219726562000,45.7150688171386700,669.4395751953125000,4.3167080879211430,54.2626914978027340,53,100,83,80,80,14814,2147757110,2147421220,2148012196,2147876681,2147638345,2147056667,2148259017,2147193216,3582,4,13,43834
1366210448,5806,984.4099731445312000,46.8794097900390600,670.1403808593750000,4.2935600280761720,54.1057815551757800,52,99,86,79,81,14815,2147758546,2147423990,2148011739,2147872310,2147638857,2147055149,2148264301,2147195730,3174,4,13,29693
1366214048,5807,969.6400146484375000,46.6969490051269500,670.5836791992188000,4.2789120674133300,54.1391105651855500,52,98,90,78,80,14814,2147755858,2147421824,2148013741,2147871936,2147637577,2147058048,2148258697,2147192402,193,4,13,60715
1366217648,5809,967.2399902343750000,46.7986106872558600,672.6937255859375000,4.2091751098632810,54.1542892456054700,52,98,87,78,81,14815,2147758290,2147425645,2148013065,2147876626,2147640512,2147056978,2148258294,2147194349,526,4,13,56182
1366221248,5812,966.4400024414062000,47.0249290466308600,673.8389282226562000,4.1712989807128910,54.1370811462402340,52,99,86,78,81,14814,2147755885,2147424484,2148009782,2147873728,2147639561,2147052315,2148263771,2147196800,47,4,13,1475
1366224848,5810,1003.2100219726562000,48.4287109375000000,675.2772216796875000,4.1237139701843260,53.9537582397460940,52,96,87,78,80,14814,2147758089,2147423771,2148011638,2147873462,2147641078,2147057005,2148263606,2147195126,138,4,13,26166
1366228448,5809,1007.6099853515625000,48.6866798400878900,675.0175781250000000,4.1323032379150390,53.9117317199707000,53,99,87,78,80,14812,2147758774,2147421092,2148008027,2147874633,2147640685,2147055917,2148268032,2147195721,3511,4,13,49428
1366229456,5809,1005.9699707031250000,48.6337890625000000,674.5626220703125000,4.1473622322082520,53.9207191467285160,52,98,86,79,81,14833,2147756653,2147424210,2148011693,2147871177,2147642029,2147059949,2148260397,2147194944,3345,4,13,19803
